{"data":{"norad_id":68695,"intl_designator":"2026-080E","name":"JILIN GAOFEN OBJECT E","alt_names":[],"object_type":"PAYLOAD","status":"ACTIVE","operator":null,"country":"PRC","launch_date":"2026-04-14","launch_site_code":"JSC","launch_vehicle":null,"mission":null,"orbit_class":"UNKNOWN","rcs_meters":null,"size_class":null,"mass_kg":null,"dimensions":null,"purposes":[],"wikipedia_slug":null,"has_3d_model":false,"image_url":null,"decayed_at":null,"tle_current":{"epoch":"2026-09-20T03:30:52.983648Z","epoch_age_seconds":93863,"freshness":"FRESH","line1":"1 68695U 26080E   26263.14644657  .00003341  00000+0  21913-3 0  9995","line2":"2 68695  97.6571 338.5931 0015337  99.3315 260.9648 15.08283459 23940","mean_motion":15.08283459,"eccentricity":0.0015337,"inclination_deg":97.6571,"raan_deg":338.5931,"arg_perigee_deg":99.3315,"mean_anomaly_deg":260.9648,"bstar":0.00021913,"rev_number":2394,"period_min":95.472770148572,"perigee_km":530.83247224534,"apogee_km":552.05759818015,"semimajor_km":6919.5820352127,"source":"CELESTRAK","updated_at":"2026-09-20T09:00:24.409214Z"}}}